Temperature
18 17 17 16 17 17 17 17 17 17 17 17 16 16 16 16 16 16 16 15 15 15 15 15 14 14 14 14 14 14 14 14 14 14 13 13 13 13 13 13 13 13 13
20 18 17 16 17 17 17 16 16 16 16 16 16 16 16 16 16 15 15 15 15 14 14 14 14 14 14 14 13 13 13 13 13 13 13 13 12 12 13 12 12 12 12
20 18 16 16 16 16 16 16 16 16 16 16 16 15 15 15 15 15 15 14 14 14 14 14 14 14 13 13 13 13 13 13 13 13 13 12 12 12 12 12 12 12 12
19 17 16 16 16 16 16 16 16 16 16 15 15 15 15 15 14 14 14 14 14 14 14 14 14 13 13 13 12 12 12 12 12 12 12 12 12 11 11 11 11 11 11
18 17 16 16 16 16 16 16 16 16 15 15 15 15 14 14 14 14 14 14 13 13 13 13 14 13 13 12 12 12 12 12 12 12 12 11 11 11 11 11 11 11 11
18 17 16 16 16 16 16 16 15 15 15 15 15 14 14 14 14 13 13 13 13 13 13 13 13 13 12 12 12 12 12 12 12 11 11 11 11 10 10 10 10 10 10
18 16 16 15 15 15 15 15 15 15 15 14 14 14 14 13 13 13 13 13 13 13 13 13 13 13 12 12 12 12 11 11 11 11 11 11 10 10 10 10 10 10 10
18 16 15 15 15 15 15 15 15 15 14 14 14 14 13 13 13 13 13 13 13 13 12 12 13 12 12 12 11 11 11 11 11 11 11 11 10 10 10 10 10 10 10
17 16 15 15 15 15 15 15 15 14 14 14 13 13 13 13 13 13 13 13 13 12 12 12 12 12 12 12 11 11 11 11 11 11 11 10 10 10 10 10 10 9 9
16 15 15 15 15 15 15 14 14 14 14 13 13 13 13 13 13 13 12 12 12 12 12 12 12 12 11 11 11 11 11 11 11 11 10 10 10 9 9 9 9 9 9
15 15 15 15 14 14 14 14 14 14 13 13 13 13 13 13 13 12 12 12 12 12 12 12 12 11 11 11 11 11 11 11 10 10 10 10 9 9 9 9 9 9 9
15 15 14 14 14 14 14 14 13 13 13 13 13 13 12 13 13 12 12 12 12 12 12 12 11 11 11 11 11 10 10 10 10 10 10 10 9 9 9 9 9 9 9
15 15 14 14 14 14 14 13 13 13 13 13 13 13 13 13 13 12 12 12 12 12 12 12 11 11 11 11 11 10 10 10 10 10 10 9 9 9 9 9 9 9 9
15 15 14 14 14 14 14 13 13 13 13 13 12 12 13 13 13 12 12 12 12 12 12 12 11 11 11 10 10 10 10 10 10 10 10 9 9 9 9 9 9 8 9
15 15 14 14 14 14 13 13 13 13 13 13 13 13 13 13 13 12 12 12 12 12 12 11 11 11 11 10 10 10 10 10 10 10 10 10 9 9 9 8 8 8 8
15 15 15 14 14 14 13 13 13 13 13 13 13 13 13 13 13 12 12 12 12 12 11 11 11 10 10 10 10 10 10 10 10 10 10 9 9 9 9 8 8 8 8
16 15 15 14 14 14 14 13 13 13 13 13 13 13 12 12 12 12 12 12 12 11 11 11 10 10 10 10 10 10 10 10 10 10 10 9 9 9 9 9 9 8 8
16 15 15 14 14 14 14 13 13 13 13 13 13 12 12 12 12 12 12 12 12 11 11 11 10 10 10 10 9 9 9 9 9 9 9 9 9 9 9 9 9 9 9
16 16 15 14 14 14 14 13 13 13 13 13 12 12 12 12 12 12 12 12 11 11 11 10 10 10 10 10 9 9 9 9 9 9 9 9 9 9 9 9 9 9 9
16 16 15 15 14 14 14 13 13 13 13 12 12 12 12 12 12 12 12 12 11 11 11 10 10 10 10 9 9 9 9 9 9 9 9 9 9 9 9 9 9 9 9
16 15 15 14 14 14 13 13 13 13 13 12 12 12 12 12 12 12 12 11 11 11 11 11 10 10 9 9 9 8 8 8 9 9 9 9 9 9 9 9 9 9 9
16 16 15 15 15 14 14 14 14 14 13 12 12 12 12 12 12 12 12 12 11 11 11 10 10 10 9 9 9 8 8 8 9 9 9 9 9 9 9 9 9 9 9
16 16 16 16 15 15 15 14 13 12 12 12 12 12 12 12 12 12 12 12 12 11 11 11 10 10 10 9 9 9 9 9 9 9 9 9 9 9 9 9 9 9 9
17 17 16 16 16 15 15 14 13 13 13 14 13 13 13 12 12 12 12 12 12 12 11 11 11 10 10 10 9 9 9 9 9 9 9 9 9 9 9 9 9 9 9
17 17 17 16 16 16 15 14 14 14 14 14 13 13 13 12 12 12 12 12 12 12 11 11 11 10 10 10 10 9 9 9 9 9 9 10 9 10 9 9 9 9 9
17 17 17 16 16 16 15 15 15 15 14 14 13 13 13 12 12 12 12 12 12 12 12 11 11 10 10 10 10 10 9 9 9 9 9 10 10 9 9 9 9 9 9
Wind_Speed
11 16 28 27 27 27 26 25 25 24 24 23 23 22 22 22 21 21 21 20 20 20 20 20 20 20 20 20 20 20 20 20 19 19 19 18 18 18 17 17 16 15 17
18 22 30 29 28 27 27 26 25 25 24 23 23 22 22 21 21 20 20 19 20 20 20 20 20 20 19 19 20 20 19 19 19 18 17 17 17 17 16 16 15 14 16
21 24 29 29 29 28 28 27 26 25 24 23 23 22 21 21 20 20 19 19 20 20 20 20 19 19 18 18 18 18 18 18 18 17 15 13 14 15 15 15 16 16 16
22 23 26 29 29 29 28 28 27 25 24 23 23 22 21 21 20 20 20 19 19 19 20 19 19 18 17 17 17 17 17 17 17 15 13 12 12 15 15 15 15 15 15
20 22 26 30 29 29 29 28 27 26 25 24 23 22 22 21 20 20 20 20 20 19 19 19 18 17 17 16 16 17 17 17 16 15 13 12 11 14 14 14 14 14 15
19 20 26 30 29 29 29 28 27 26 25 24 23 22 22 21 20 20 20 20 20 19 19 18 17 17 16 15 16 17 17 17 16 14 12 11 10 13 14 13 13 14 14
19 18 26 29 29 29 29 28 27 26 25 24 24 23 22 21 21 21 20 20 19 19 18 17 17 16 15 15 15 16 17 17 15 13 11 10 11 13 13 13 12 13 14
20 18 23 28 29 29 29 28 27 26 25 25 24 23 23 22 22 21 20 19 19 18 18 17 16 15 14 14 15 15 15 14 13 11 10 9 11 12 12 12 13 13 14
17 16 16 22 26 28 28 27 26 26 25 25 24 24 23 22 22 21 20 19 19 18 17 16 16 15 14 13 14 14 14 14 12 10 8 7 10 11 11 12 13 13 14
16 15 14 16 20 22 24 27 26 25 25 25 24 23 23 22 21 21 20 19 18 17 17 16 15 14 13 12 13 14 13 13 11 9 8 8 10 10 11 11 12 12 12
17 14 13 14 15 18 21 24 25 25 25 24 23 24 22 19 19 18 19 19 18 17 16 15 14 13 11 10 11 12 12 11 11 9 7 9 10 11 11 11 11 11 12
21 18 15 15 15 16 17 19 19 20 21 20 20 20 18 17 17 17 19 19 18 17 16 15 13 11 9 8 8 10 11 11 9 7 7 9 10 11 11 11 11 10 10
23 20 18 16 16 14 12 14 13 15 17 18 19 19 18 17 16 15 14 15 15 15 13 12 10 8 6 6 7 9 10 10 9 7 7 8 9 9 9 9 9 9 9
22 21 19 17 16 14 12 11 11 11 12 13 17 20 17 11 10 11 10 11 12 11 10 9 7 6 6 6 8 8 9 10 9 8 7 8 8 8 8 8 8 8 8
22 21 20 19 18 15 13 11 11 11 12 15 17 18 18 11 8 9 9 11 11 11 10 8 6 6 5 6 7 9 9 10 10 9 8 8 8 7 7 6 7 6 6
22 22 21 20 19 16 14 12 11 12 14 16 16 18 19 16 12 10 8 9 10 12 11 9 7 6 5 6 6 8 9 10 10 9 8 7 7 6 6 6 6 5 5
23 21 21 21 20 19 16 14 12 13 14 13 15 19 20 18 16 12 8 7 10 13 12 9 7 6 4 4 4 6 8 9 9 9 8 7 6 5 4 5 5 4 3
21 22 22 20 20 20 17 15 12 13 13 13 16 18 20 20 20 14 9 8 12 12 9 5 4 4 4 4 4 3 4 6 8 9 8 8 7 5 5 4 4 3 3
21 22 23 21 22 21 18 14 12 12 12 13 15 16 18 20 21 15 10 10 13 9 6 6 4 4 4 4 4 3 3 4 5 7 7 8 8 8 6 5 5 4 3
20 22 22 21 21 19 16 12 11 11 11 12 13 15 19 19 20 17 11 11 12 7 6 5 5 4 4 5 4 2 1 2 4 5 6 8 9 10 9 8 6 5 5
20 21 23 22 21 19 16 16 15 15 13 12 11 15 19 19 20 16 10 10 10 9 8 8 5 5 4 4 4 2 2 1 2 3 5 6 7 10 10 10 9 8 7
23 24 24 24 23 23 18 16 13 11 9 10 9 12 18 18 19 16 12 11 10 8 9 9 6 5 4 4 4 3 1 3 3 3 3 4 6 8 9 11 11 11 10
23 25 24 26 24 24 19 13 10 8 6 8 11 13 13 18 18 16 14 12 11 10 10 10 9 8 6 4 4 5 4 5 3 2 3 4 5 4 6 9 11 12 12
23 23 25 26 25 24 21 19 20 16 14 14 13 12 12 15 16 17 16 14 12 10 10 11 9 7 8 6 4 3 3 4 3 2 3 3 4 6 6 6 9 12 13
21 22 23 24 25 24 23 23 22 17 14 9 9 12 13 12 14 16 16 14 13 11 12 12 10 9 7 7 5 4 3 2 2 3 3 3 3 5 5 6 8 10 13
19 20 21 24 25 24 25 24 24 21 16 14 13 15 14 11 12 15 15 14 13 12 12 11 12 11 10 8 7 5 5 4 4 4 4 4 4 4 4 4 6 9 12
Wind_Direction
174 172 165 160 154 151 148 144 140 136 132 129 126 124 123 121 119 118 116 114 113 111 109 107 105 102 100 99 98 96 94 91 88 85 83 83 82 80 78 75 71 66 68
160 167 163 159 155 153 150 146 142 138 136 133 130 128 127 125 123 122 120 118 116 114 111 108 106 105 104 103 102 99 95 93 90 87 83 80 81 80 78 76 75 73 70
157 164 161 159 156 153 150 146 142 140 138 135 133 132 130 128 127 126 124 121 118 115 112 110 108 107 107 106 104 100 98 97 94 89 79 71 78 79 78 75 72 72 70
158 162 161 159 156 153 150 147 144 143 140 138 137 135 134 132 130 128 126 122 119 115 113 111 111 111 110 109 106 102 99 98 96 90 74 69 76 81 80 77 73 71 69
159 162 161 159 157 153 151 149 147 146 144 142 141 140 138 136 134 131 127 123 121 119 116 115 115 115 113 109 106 102 100 101 97 86 75 70 73 83 82 78 75 73 72
158 160 162 160 158 155 153 151 149 148 147 145 144 143 140 138 136 133 130 126 124 123 121 119 119 117 114 108 106 105 103 103 96 84 75 70 72 83 83 81 76 74 72
157 159 162 161 159 157 154 153 152 151 150 148 147 145 142 140 137 134 132 130 128 127 127 124 123 120 116 112 109 106 106 105 98 87 78 74 80 86 84 81 78 76 74
156 158 162 162 160 158 156 155 154 153 152 150 149 146 143 141 139 137 136 135 133 132 131 128 126 124 119 114 109 107 107 106 101 90 82 81 88 88 85 81 79 78 74
155 158 160 162 160 158 157 156 155 155 154 153 151 148 145 144 143 142 141 140 138 137 135 133 130 128 123 115 110 108 107 107 105 95 86 88 94 91 88 84 80 77 74
156 159 160 159 159 158 157 156 155 155 154 153 151 148 147 147 147 145 144 143 142 140 138 136 135 131 125 116 112 109 107 106 106 99 92 98 99 96 93 88 83 80 77
162 164 161 159 157 155 156 157 155 154 153 151 149 148 146 145 144 144 145 146 146 144 143 140 138 134 125 117 114 109 108 109 108 103 103 108 103 99 96 91 88 85 81
170 170 166 162 158 156 158 156 156 154 153 150 150 147 144 141 141 145 149 150 150 148 147 146 143 137 123 111 111 111 112 115 110 107 111 110 106 100 96 95 92 89 86
172 171 170 165 161 160 157 156 156 154 152 150 151 148 145 141 143 146 148 151 149 147 145 145 139 137 131 124 123 121 121 123 116 112 114 112 111 107 102 101 97 94 88
172 174 171 167 165 163 158 159 157 156 156 157 157 153 150 146 145 148 147 149 148 148 145 145 147 153 148 141 138 134 131 131 128 120 117 114 115 115 114 110 105 100 94
175 175 174 170 168 165 161 163 164 163 162 162 162 161 158 155 155 153 155 156 156 158 159 158 161 162 157 152 147 143 139 140 138 130 125 121 122 122 124 120 114 107 102
178 177 175 174 172 168 168 169 168 167 166 167 168 168 165 163 162 160 161 164 167 171 172 170 170 167 161 151 146 147 147 145 144 140 134 128 129 131 134 132 122 116 109
179 178 177 177 174 172 171 171 171 172 170 172 173 172 170 168 167 166 166 171 177 179 174 168 164 159 146 142 145 147 149 152 152 151 147 142 139 140 143 149 143 135 125
179 178 179 179 177 176 175 174 173 175 174 175 176 176 174 172 172 169 171 178 181 178 170 159 155 149 148 144 147 153 150 154 158 162 160 159 158 157 159 164 167 165 158
182 180 180 180 179 178 176 174 173 175 177 178 178 179 179 176 175 173 175 178 177 173 169 168 157 151 151 151 151 149 157 163 168 169 172 177 177 176 175 179 184 189 194
185 182 182 180 179 177 174 172 172 176 179 180 181 181 180 180 178 175 176 176 174 169 171 166 156 152 152 152 139 124 165 190 178 181 185 187 190 191 190 190 193 202 213
186 184 184 181 179 177 179 180 182 186 183 182 183 181 182 181 179 177 177 176 176 178 176 165 152 155 151 137 109 70 356 324 229 214 194 188 197 202 202 203 205 210 219
188 187 186 185 181 182 185 185 185 179 178 179 179 182 184 183 182 182 177 180 179 176 174 172 157 155 161 158 139 127 247 308 282 236 216 209 206 203 208 212 212 215 219
192 190 189 188 185 186 181 174 163 154 154 175 188 190 188 186 185 184 182 180 182 182 185 183 174 166 172 187 168 152 166 217 253 283 240 226 216 212 215 216 217 220 221
195 192 191 189 188 186 180 179 178 182 189 194 191 189 185 186 186 186 184 184 185 187 187 188 184 175 165 180 196 189 164 156 166 246 289 255 232 226 224 218 218 220 219
195 191 191 190 189 186 184 184 184 190 194 179 175 180 186 189 190 189 188 188 190 192 191 189 186 185 181 178 178 169 159 145 146 163 238 271 266 243 228 221 218 220 222
195 192 190 189 190 187 187 187 190 191 184 176 182 188 191 192 194 195 193 193 194 194 194 194 192 191 193 186 186 179 170 171 185 176 201 230 245 261 241 229 222 224 225
Height
1483 1488 1494 1498 1502 1505 1508 1511 1514 1516 1518 1520 1522 1524 1526 1527 1529 1530 1531 1532 1533 1534 1535 1536 1536 1537 1537 1537 1538 1538 1538 1539 1539 1539 1539 1539 1539 1539 1538 1538 1538 1537 1537
1479 1485 1492 1496 1500 1504 1507 1510 1513 1515 1518 1520 1522 1524 1526 1527 1529 1530 1531 1532 1533 1534 1535 1536 1536 1537 1537 1538 1538 1539 1539 1539 1539 1540 1540 1540 1540 1540 1539 1539 1539 1539 1538
1478 1484 1490 1495 1499 1503 1506 1510 1513 1515 1517 1520 1522 1523 1525 1527 1528 1530 1531 1532 1533 1534 1535 1536 1536 1537 1538 1538 1539 1539 1539 1540 1540 1540 1541 1541 1541 1541 1540 1540 1540 1539 1539
1478 1483 1488 1493 1498 1502 1505 1509 1512 1514 1517 1519 1521 1523 1525 1527 1528 1530 1531 1532 1533 1534 1535 1536 1536 1537 1538 1539 1540 1540 1540 1540 1541 1541 1541 1541 1542 1542 1541 1541 1541 1540 1540
1479 1483 1487 1492 1497 1501 1504 1508 1511 1514 1516 1519 1521 1523 1524 1526 1528 1529 1531 1532 1533 1534 1535 1536 1537 1538 1539 1539 1540 1541 1541 1541 1542 1542 1542 1542 1543 1543 1542 1542 1542 1541 1541
1478 1482 1487 1492 1496 1500 1503 1507 1510 1513 1515 1518 1520 1522 1524 1526 1528 1529 1530 1531 1532 1534 1535 1536 1537 1538 1539 1540 1541 1541 1542 1542 1543 1543 1543 1543 1544 1544 1543 1543 1543 1542 1542
1476 1482 1486 1491 1495 1499 1502 1506 1509 1512 1515 1517 1520 1522 1524 1526 1527 1529 1530 1531 1532 1534 1535 1536 1537 1538 1539 1541 1541 1542 1542 1543 1543 1544 1544 1544 1545 1545 1544 1544 1544 1543 1543
1475 1480 1486 1491 1494 1498 1501 1505 1508 1511 1514 1516 1519 1521 1523 1525 1527 1528 1530 1531 1532 1534 1535 1536 1538 1539 1540 1541 1542 1542 1543 1544 1544 1545 1545 1545 1546 1546 1545 1545 1545 1544 1544
1476 1480 1485 1490 1494 1497 1501 1504 1507 1510 1513 1516 1518 1521 1522 1524 1526 1528 1529 1531 1532 1534 1535 1537 1538 1539 1541 1541 1542 1543 1544 1544 1545 1545 1546 1546 1546 1546 1546 1546 1546 1545 1544
1475 1479 1484 1488 1492 1496 1500 1503 1506 1510 1512 1515 1518 1520 1522 1524 1526 1528 1529 1531 1532 1534 1536 1537 1538 1540 1541 1542 1543 1544 1545 1545 1546 1546 1547 1547 1547 1547 1547 1546 1546 1546 1545
1475 1479 1482 1486 1490 1494 1498 1502 1505 1509 1512 1514 1517 1519 1521 1523 1525 1527 1529 1531 1532 1534 1536 1537 1539 1540 1541 1542 1543 1544 1545 1546 1546 1547 1547 1548 1548 1548 1547 1547 1547 1546 1546
1471 1476 1480 1484 1488 1492 1496 1500 1504 1507 1510 1513 1515 1518 1520 1522 1524 1526 1528 1530 1532 1534 1536 1537 1539 1540 1542 1543 1544 1545 1546 1546 1547 1547 1548 1548 1548 1548 1548 1548 1547 1547 1546
1466 1472 1477 1481 1486 1490 1494 1498 1501 1505 1508 1511 1514 1516 1519 1521 1523 1526 1528 1530 1532 1534 1535 1537 1539 1540 1542 1543 1544 1545 1546 1547 1547 1548 1548 1549 1549 1549 1548 1548 1548 1547 1547
1464 1469 1474 1478 1483 1488 1491 1495 1499 1502 1505 1509 1512 1515 1517 1520 1522 1524 1527 1529 1531 1533 1535 1537 1539 1540 1542 1543 1544 1545 1546 1547 1547 1548 1548 1549 1549 1549 1549 1549 1548 1548 1547
1461 1466 1470 1475 1480 1484 1489 1493 1496 1500 1503 1507 1510 1513 1516 1518 1521 1523 1526 1528 1530 1532 1535 1537 1538 1540 1542 1543 1544 1545 1546 1547 1547 1548 1548 1549 1549 1549 1549 1549 1549 1548 1547
1457 1462 1467 1472 1477 1481 1485 1490 1494 1498 1502 1505 1508 1511 1514 1517 1519 1522 1525 1527 1529 1532 1534 1536 1538 1540 1541 1543 1544 1545 1546 1547 1547 1548 1548 1548 1549 1549 1549 1549 1549 1548 1548
1453 1458 1463 1468 1473 1478 1482 1487 1492 1496 1499 1503 1506 1509 1512 1515 1518 1521 1523 1526 1528 1531 1533 1536 1537 1539 1541 1542 1544 1545 1546 1546 1547 1547 1548 1548 1548 1549 1549 1549 1548 1548 1547
1449 1454 1460 1465 1470 1474 1479 1484 1489 1493 1497 1500 1504 1507 1510 1513 1516 1519 1522 1524 1527 1530 1532 1534 1536 1538 1540 1541 1543 1544 1545 1546 1546 1547 1547 1547 1548 1548 1548 1548 1548 1548 1547
1445 1450 1455 1460 1465 1470 1476 1481 1486 1490 1494 1497 1501 1504 1507 1511 1514 1517 1520 1523 1526 1528 1530 1533 1535 1537 1539 1540 1542 1543 1544 1545 1545 1546 1546 1546 1547 1547 1547 1547 1547 1547 1546
1441 1446 1451 1456 1461 1467 1473 1478 1483 1487 1490 1494 1497 1501 1504 1508 1511 1514 1518 1521 1523 1526 1528 1531 1533 1536 1538 1540 1541 1542 1543 1544 1544 1544 1544 1545 1545 1545 1546 1546 1546 1545 1545
1437 1441 1446 1451 1456 1462 1467 1472 1476 1480 1485 1489 1493 1498 1501 1505 1508 1511 1514 1518 1520 1523 1526 1529 1531 1533 1536 1538 1539 1541 1541 1542 1542 1542 1542 1543 1543 1544 1544 1544 1544 1544 1543
1429 1434 1440 1445 1450 1455 1460 1465 1471 1476 1481 1486 1490 1494 1498 1501 1505 1508 1511 1514 1517 1520 1523 1526 1528 1530 1533 1535 1536 1538 1539 1540 1539 1539 1540 1540 1541 1541 1542 1542 1542 1542 1541
1422 1427 1432 1438 1443 1449 1455 1462 1468 1474 1479 1483 1486 1489 1492 1496 1500 1504 1507 1511 1514 1517 1519 1522 1525 1527 1529 1532 1534 1535 1536 1535 1536 1536 1536 1537 1538 1538 1539 1539 1539 1539 1539
1415 1420 1426 1431 1437 1443 1449 1455 1459 1463 1467 1471 1476 1482 1487 1492 1496 1500 1503 1507 1510 1513 1515 1518 1521 1524 1526 1528 1530 1532 1534 1533 1534 1533 1534 1534 1535 1535 1536 1536 1536 1536 1536
1408 1413 1419 1425 1430 1436 1442 1447 1452 1457 1462 1468 1473 1478 1483 1487 1491 1495 1499 1502 1505 1508 1511 1514 1517 1520 1522 1524 1526 1528 1529 1530 1531 1532 1531 1531 1532 1533 1533 1533 1533 1533 1533
1401 1406 1412 1418 1423 1429 1435 1440 1445 1450 1456 1462 1467 1472 1477 1481 1485 1489 1493 1496 1500 1503 1506 1509 1513 1515 1518 1520 1522 1524 1525 1527 1527 1528 1528 1528 1529 1530 1530 1530 1529 1529 1529